Mona Airport

Jump to: basic info | weather | comments

Related pages: nearby airports | nearby navaids

Basic information (top)

Location: lon 18.075300, lat -67.931000, elev 1 ft / 0 m msl
Status: small_airport

Weather (top)

Current conditions for Punta Cana International Airport 38nm (71km) NW (rec'd 2014/10/25 22:00Z):

MDPC 252200Z 21007KT 9999 FEW022 29/25 Q1010

Airport forecast for Punta Cana International Airport 38nm (71km) NW (rec'd 2014/10/25 06:58Z):

TAF MDPC 250400Z 2506/2606 16005KT 9999 FEW018 SCT300 PROB40 2517/25121 8000 -TSRA FEW016CB BKN017 
      BECMG 2602/2604 00000KT

Latest comments (top)

No comments yet for Mona Airport

More... (top)

See also NOTAMs and nearby airports and navaids, or visit the Mona Airport page at the main OurAirports website..